Regional Weather Roundup
Issued by NWS Green Bay, WI

Home | Current Version | Previous Version | Graphics & Text | Print | Product List | Glossary Off
Versions: 1 2 3 4 5 6 7 8 9 10 11 12 13 14 15 16 17 18 19 20 21 22 23 24 25 26 27 28 29 30 31 32 33 34 35 36 37 38 39 40 41 42 43 44 45 46 47 48 49 50

000
ASUS43 KGRB 220259
RWRGRB

NORTH-CENTRAL AND NORTHEAST WISCONSIN REGIONAL WEATHER ROUNDUP
NATIONAL WEATHER SERVICE GREEN BAY WI
900 PM CST SAT JAN 21 2017

WIZ005-009-010>012-018-019-220400-
NORTH CENTRAL WISCONSIN

CITY           SKY/WX    TMP DP  RH WIND       PRES   REMARKS
IRONWOOD       CLOUDY    35  35 100 CALM      29.50R FOG
MANITOWISH WTR NOT AVBL
ARBOR VITAE    NOT AVBL
EAGLE RIVER    NOT AVBL
LAND O LAKES   NOT AVBL
RHINELANDER    FOG       35  35 100 E5        29.49S VSB 1/4
PHILLIPS       FOG       34  34 100 CALM      29.48R VSB 3/4
ANTIGO         NOT AVBL
TOMAHAWK       NOT AVBL
MERRILL        FOG       35  35 100 CALM        N/A  VSB 1/2
$$

WIZ013-073-220400-
NORTHEAST WISCONSIN

CITY           SKY/WX    TMP DP  RH WIND       PRES   REMARKS
IRON MOUNTAIN  FOG       34  32  92 CALM      29.49S VSB 1/4
MARINETTE      NOT AVBL
$$

WIZ017-030-035>037-045-220400-
CENTRAL WISCONSIN

CITY           SKY/WX    TMP DP  RH WIND       PRES   REMARKS
MEDFORD        NOT AVBL
WAUSAU         FOG       35  35 100 SE3       29.49S VSB 1/4
MOSINEE        FOG       36  36 100 CALM      29.50S VSB 1/4
MARSHFIELD     FOG       36  35  96 CALM      29.48R VSB 1/4
WISC RAPIDS    FOG       38  38 100 S3        29.51S VSB 1/4
STEVENS POINT  NOT AVBL
WAUPACA        NOT AVBL
SHAWANO        NOT AVBL
CLINTONVILLE   FOG       34  34 100 CALM      29.52S VSB 3/4
WAUTOMA        FOG       35  34  96 S3        29.54R VSB 1/2
$$

WIZ038-039-048-051-220400-
FOX VALLEY

CITY           SKY/WX    TMP DP  RH WIND       PRES   REMARKS
NWS GREEN BAY  CLOUDY    38  38 100 SW5       29.53R FOG
APPLETON       FOG       36  36 100 CALM      29.52R VSB 1/4
OSHKOSH        FOG       38  38 100 CALM      29.53S VSB 1/2
FOND DU LAC    FOG       40  38  93 S3        29.53F VSB 1/2
$$

WIZ022-050-052-220400-
EAST CENTRAL WISCONSIN

CITY           SKY/WX    TMP DP  RH WIND       PRES   REMARKS
EPHRAIM        NOT AVBL
WASHINGTON ISL NOT AVBL
STURGEON BAY   FOG       38  38 100 SW7       29.53S VSB 1/2
MANITOWOC      NOT AVBL
SHEBOYGAN      CLOUDY    40  38  93 SW6       29.53F
$$

LMZ563-521-522-541>543-220400-
LAKESHORE

STATION/POSITION TIME  TEMP    WIND        PRES    VSBY  WAVE
                       AIR SEA DIR/SP/G                  HT/PER
                 (UTC) (F)     (DEG/KT/KT) (MB)    (MI)  (FT/S)
SHEBOYGAN LKSHOR 0200   44     230/  9/ 10 1000.5R
KEWAUNEE LKSHORE 0230   36     210/  1/  5  999.7R
NORTHPORT PIER   0240   40     150/  5/  7  999.7S
SISTER BAY LKSHO 0220   40     180/  9/ 10   N/A
MENOMINEE LKSHOR 0230          180/  4/  4  999.0S
$$




USA.gov is the U.S. government's official web portal to all federal, state and local government web resources and services.